Location: Cardiff
(53.7833°N, 113.6000°W)
Time: 15:22:42
(UTC+00:00)

RS-15 - Pass Details

Date: 03 December 2023
Orbit: 1893 x 2151 km, 64.8° (Epoch: 27 February)

Event Time Altitude Azimuth Distance (km) Brightness Sun altitude
Exits shadow 08:03:20 30° 45° (NE) 3,112 9.2 -57.4°
Drops below altitude 10° 08:08:32 10° 61° (ENE) 4,404 10.1 -57.2°
Sets 08:11:58 0° 67° (ENE) 5,373 10.7 -57.0°
